Gainesville, TX

4:18 PM CDT on May 26, 2017 (GMT -0500)
Gainesville Municipal

Weather History for KGLE - December, 2012

Change the Weather History Date:

Saturday, December 1, 2012

  Actual Average (KDTO) Record (KDTO)
Temperature  
Mean Temperature 66 °F -  
Max Temperature 77 °F 59 °F 82 °F (2012)
Min Temperature 55 °F 38 °F 21 °F (2006)
Cooling Degree Days 1    
Growing Degree Days 16 (Base 50)    
Moisture  
Dew Point 58 °F    
Average Humidity 78    
Maximum Humidity 100    
Minimum Humidity 50    
Precipitation  
Precipitation 0.00 in - - ()
Sea Level Pressure  
Sea Level Pressure 29.99 in    
Wind  
Wind Speed 12 mph (SSE)    
Max Wind Speed 26 mph    
Max Gust Speed 33 mph    
Visibility 8 miles    
Events      
Averages and records for this station are not official NWS values.
T = Trace of Precipitation, MM = Missing Value Source: NWS Daily Summary

Daily Weather History Graph

Daily Weather History Graph

Search for Another Location

Airport or City:

Trip Planner

Search our weather history database for the weather conditions in past years. The results will help you decide how hot, cold, wet, or windy it might be!

Date:

Astronomy

Dec. 01, 2012 Rise Set
Actual Time 7:15 AM CST 5:20 PM CST
Civil Twilight 6:48 AM CST 5:47 PM CST
Nautical Twilight 6:17 AM CST 6:18 PM CST
Astronomical Twilight 5:47 AM CST 6:48 PM CST
Moon 8:09 PM CST (12/1) 9:31 AM CST (12/1)
Length of Visible Light 10h 59m
Length of Day
10h 04m
Waning Gibbous, 91% of the Moon is Illuminated
Dec 1
Waning Gibbous
Dec 6
Last Quarter
Dec 13
New
Dec 19
First Quarter
Dec 28
Full

Hourly Weather History & Observations

Time (CST) Temp. Dew Point Humidity Pressure Visibility Wind Dir Wind Speed Gust Speed Precip Events Conditions
12:15 AM 57.2 °F 55.4 °F 94% 30.05 in 7.0 mi SSE 9.2 mph - N/A   Clear
12:35 AM 57.2 °F 55.4 °F 94% 30.04 in 7.0 mi SSE 10.4 mph - N/A   Clear
12:55 AM 57.2 °F 55.4 °F 94% 30.05 in 7.0 mi SSE 8.1 mph - N/A   Clear
1:15 AM 55.4 °F 55.4 °F 100% 30.04 in 5.0 mi SSE 8.1 mph - N/A   Clear
1:35 AM 55.4 °F 55.4 °F 100% 30.04 in 5.0 mi SSE 8.1 mph - N/A   Clear
1:55 AM 57.2 °F 55.4 °F 94% 30.04 in 5.0 mi SSE 8.1 mph - N/A   Clear
2:15 AM 55.4 °F 55.4 °F 100% 30.04 in 5.0 mi SSE 9.2 mph - N/A   Clear
2:35 AM 55.4 °F 55.4 °F 100% 30.04 in 4.0 mi SSE 6.9 mph - N/A   Clear
2:55 AM 55.4 °F 55.4 °F 100% 30.04 in 3.0 mi SE 6.9 mph - N/A   Clear
3:15 AM 55.4 °F 55.4 °F 100% 30.04 in 2.5 mi SE 6.9 mph - N/A   Overcast
3:35 AM 57.2 °F 57.2 °F 100% 30.03 in 3.0 mi SSE 9.2 mph - N/A   Overcast
3:55 AM 59.0 °F 57.2 °F 94% 30.02 in 4.0 mi SSE 9.2 mph - N/A   Overcast
4:15 AM 59.0 °F 57.2 °F 94% 30.02 in 4.0 mi SSE 11.5 mph - N/A   Overcast
4:35 AM 57.2 °F 55.4 °F 94% 30.02 in 3.0 mi SSE 8.1 mph - N/A   Mostly Cloudy
4:55 AM 57.2 °F 55.4 °F 94% 30.02 in 2.5 mi SSE 6.9 mph - N/A   Mist
5:15 AM 55.4 °F 55.4 °F 100% 30.02 in 2.5 mi SSE 6.9 mph - N/A   Mostly Cloudy
5:35 AM 55.4 °F 55.4 °F 100% 30.02 in 2.5 mi SSE 8.1 mph - N/A   Mostly Cloudy
5:55 AM 57.2 °F 57.2 °F 100% 30.02 in 3.0 mi SSE 9.2 mph - N/A   Mostly Cloudy
6:15 AM 59.0 °F 57.2 °F 94% 30.03 in 4.0 mi South 16.1 mph 20.7 mph N/A   Overcast
6:35 AM 59.0 °F 59.0 °F 100% 30.03 in 5.0 mi South 13.8 mph 20.7 mph N/A   Overcast
6:55 AM 59.0 °F 59.0 °F 100% 30.03 in 7.0 mi South 13.8 mph - N/A   Overcast
7:15 AM 60.8 °F 59.0 °F 94% 30.04 in 7.0 mi South 10.4 mph - N/A   Overcast
7:35 AM 60.8 °F 59.0 °F 94% 30.04 in 5.0 mi South 11.5 mph - N/A   Overcast
7:55 AM 60.8 °F 59.0 °F 94% 30.04 in 5.0 mi South 11.5 mph - N/A   Overcast
8:15 AM 62.6 °F 60.8 °F 94% 30.05 in 5.0 mi South 11.5 mph 18.4 mph N/A   Overcast
8:35 AM 62.6 °F 60.8 °F 94% 30.04 in 7.0 mi South 12.7 mph - N/A   Overcast
8:55 AM 64.4 °F 62.6 °F 94% 30.04 in 7.0 mi South 15.0 mph 20.7 mph N/A   Overcast
9:15 AM 64.4 °F 60.8 °F 88% 30.05 in 10.0 mi South 23.0 mph 33.4 mph N/A   Overcast
9:35 AM 64.4 °F 60.8 °F 88% 30.05 in 10.0 mi South 19.6 mph 27.6 mph N/A   Overcast
9:55 AM 64.4 °F 60.8 °F 88% 30.05 in 10.0 mi South 21.9 mph 27.6 mph N/A   Overcast
10:15 AM 66.2 °F 60.8 °F 83% 30.04 in 10.0 mi South 24.2 mph 28.8 mph N/A   Overcast
10:35 AM 68.0 °F 60.8 °F 78% 30.04 in 10.0 mi South 23.0 mph 31.1 mph N/A   Overcast
10:55 AM 69.8 °F 60.8 °F 73% 30.03 in 10.0 mi South 19.6 mph 29.9 mph N/A   Mostly Cloudy
11:15 AM 71.6 °F 60.8 °F 69% 30.02 in 10.0 mi South 25.3 mph 31.1 mph N/A   Scattered Clouds
11:35 AM 71.6 °F 60.8 °F 69% 30.01 in 10.0 mi South 26.5 mph - N/A   Scattered Clouds
11:55 AM 73.4 °F 59.0 °F 61% 29.99 in 10.0 mi South 21.9 mph 29.9 mph N/A   Scattered Clouds
12:15 PM 73.4 °F 60.8 °F 65% 29.98 in 10.0 mi South 20.7 mph 32.2 mph N/A   Scattered Clouds
12:35 PM 75.2 °F 60.8 °F 61% 29.97 in 10.0 mi South 20.7 mph 28.8 mph N/A   Clear
12:55 PM 75.2 °F 60.8 °F 61% 29.96 in 10.0 mi South 21.9 mph 31.1 mph N/A   Scattered Clouds
1:15 PM 75.2 °F 59.0 °F 57% 29.95 in 10.0 mi South 19.6 mph 27.6 mph N/A   Scattered Clouds
1:35 PM 77.0 °F 59.0 °F 54% 29.94 in 10.0 mi South 19.6 mph 27.6 mph N/A   Clear
1:55 PM 77.0 °F 59.0 °F 54% 29.93 in 10.0 mi South 23.0 mph 29.9 mph N/A   Clear
2:15 PM 77.0 °F 59.0 °F 54% 29.94 in 10.0 mi South 23.0 mph 27.6 mph N/A   Clear
2:35 PM 77.0 °F 59.0 °F 54% 29.93 in 10.0 mi South 19.6 mph 28.8 mph N/A   Clear
2:55 PM 77.0 °F 59.0 °F 54% 29.92 in 10.0 mi South 21.9 mph 28.8 mph N/A   Clear
3:15 PM 77.0 °F 59.0 °F 54% 29.92 in 10.0 mi South 18.4 mph 26.5 mph N/A   Clear
3:35 PM 77.0 °F 57.2 °F 50% 29.93 in 10.0 mi South 18.4 mph 27.6 mph N/A   Clear
3:55 PM 77.0 °F 57.2 °F 50% 29.92 in 10.0 mi South 18.4 mph 25.3 mph N/A   Clear
4:15 PM 77.0 °F 57.2 °F 50% 29.93 in 10.0 mi South 18.4 mph 23.0 mph N/A   Clear
4:35 PM 77.0 °F 57.2 °F 50% 29.93 in 10.0 mi South 16.1 mph 24.2 mph N/A   Clear
4:55 PM 77.0 °F 57.2 °F 50% 29.92 in 10.0 mi South 12.7 mph - N/A   Clear
5:15 PM 75.2 °F 57.2 °F 53% 29.93 in 10.0 mi SSE 8.1 mph - N/A   Clear
5:35 PM 71.6 °F 59.0 °F 64% 29.93 in 10.0 mi SSE 10.4 mph - N/A   Clear
5:55 PM 71.6 °F 59.0 °F 64% 29.94 in 10.0 mi SE 6.9 mph - N/A   Clear
6:15 PM 69.8 °F 59.0 °F 68% 29.94 in 10.0 mi SE 8.1 mph - N/A   Clear
6:35 PM 69.8 °F 59.0 °F 68% 29.94 in 10.0 mi SSE 8.1 mph - N/A   Clear
6:55 PM 69.8 °F 60.8 °F 73% 29.94 in 10.0 mi SSE 10.4 mph - N/A   Clear
7:15 PM 69.8 °F 60.8 °F 73% 29.94 in 10.0 mi SSE 11.5 mph - N/A   Clear
7:35 PM 69.8 °F 60.8 °F 73% 29.94 in 10.0 mi SSE 12.7 mph - N/A   Clear
7:55 PM 68.0 °F 59.0 °F 73% 29.95 in 10.0 mi SSE 10.4 mph - N/A   Clear
8:15 PM 68.0 °F 59.0 °F 73% 29.95 in 10.0 mi SSE 11.5 mph - N/A   Clear
8:35 PM 68.0 °F 59.0 °F 73% 29.96 in 10.0 mi SSE 8.1 mph - N/A   Clear
8:55 PM - - N/A% 29.97 in 10.0 mi South 9.2 mph - N/A   Clear
9:15 PM 66.2 °F 59.0 °F 78% 29.97 in 10.0 mi South 9.2 mph - N/A   Clear
9:35 PM 68.0 °F 59.0 °F 73% 29.98 in 10.0 mi South 11.5 mph - N/A   Clear
9:55 PM 68.0 °F 59.0 °F 73% 29.98 in 10.0 mi South 9.2 mph - N/A   Clear
10:15 PM 68.0 °F 59.0 °F 73% 29.98 in 10.0 mi South 11.5 mph - N/A   Clear
10:35 PM 68.0 °F 59.0 °F 73% 29.99 in 10.0 mi South 11.5 mph - N/A   Clear
10:55 PM 68.0 °F 59.0 °F 73% 29.99 in 10.0 mi South 10.4 mph - N/A   Clear
11:15 PM 66.2 °F 59.0 °F 78% 29.99 in 10.0 mi South 9.2 mph - N/A   Clear
11:35 PM 64.4 °F 57.2 °F 77% 30.00 in 10.0 mi South 9.2 mph - N/A   Clear
11:55 PM 64.4 °F 59.0 °F 83% 30.00 in 10.0 mi South 9.2 mph - N/A   Clear